Terminal Aerodrome Forecast
Issued by NWS Grand Forks, ND

Home | Current Version | Previous Version | Graphics & Text | Print | Product List | Glossary On
Versions: 1 2 3 4 5 6 7 8 9 10 11 12 13 14 15 16 17 18 19
000
FTUS43 KFGF 282228 AAB
TAFFAR
TAF AMD
KFAR 282228Z 2822/2918 24017G30KT P6SM VCTS BKN050CB
      TEMPO 2822/2901 2SM +RA BKN040
     FM290200 23014KT P6SM BKN100
     FM290700 35012G18KT P6SM VCSH BKN050
     FM291200 35019G27KT P6SM OVC025=

USA.gov is the U.S. government's official web portal to all federal, state and local government web resources and services.